User: anonymous   Login
Location: Unspecified
(0.0000°N, 0.0000°E)
Time: 16:12:04
(UTC+00:00)
Language:

PAKSAT 1R - Orbit

View from above orbital plane
View from above orbital plane
View from above satellite
View from above satellite

Ground track
Ground track

The orbit data is extracted from the following two-line orbital elements,

1 37779U 11042A   15210.83957422  .00000144  00000-0  00000+0 0  9998
2 37779 000.0268 148.0166 0002541 333.2044 166.1832 01.00269667 14445
Epoch (UTC): 29 July 2015 20:08:59
Eccentricity: 0.0002541
inclination: 0.0268°
perigee height: 35776 km
apogee height: 35797 km
right ascension of ascending node: 148.0166°
argument of perigee: 333.2044°
revolutions per day: 1.00269667
mean anomaly at epoch: 166.1832°
orbit number at epoch: 1444

The dashed part of the orbit path shows where the satellite is in the earth's shadow,  

DLR